DELTA 1 DEB

Satellite information

Favourite Embed

Satellite Type and Status

DEBRISIN ORBIT

Key statistics

Satellite DELTA 1 DEB at a glance.

Uptime

17988

Days in orbit

Revolutions

≈ 12.6

Per day

Orbit

SSO

Sun Synchronous Orbit

Inclination

101.5

Latest

Satellite identification and parameters

Extended collection of information and parameters for DELTA 1 DEB.

Object identification

Identified? True

Debris? True

Object name: DELTA 1 DEB

International designator: 1976-077GG

Object number (NORAD): 40763

Object ID (CCSDS): 40763

Country: UNITED STATES OF AMERICA (US)

Current information (Y/N): Y

RCS size: SMALL

Orbital parameters

Period: 114.373 minutes

Inclination: 101.5459 deg

SMA: 7805.062 km

Apoapsis: 1451.176 km

Periapsis: 1402.679 km

RAAN: 277.457 deg

Eccentricy: 0.00310677

Argument of periapsis: 301.6288 deg

Mean anomaly: 58.1758 deg

Mean motion: 12.59036177 rev/day

Mean motion (dot): 0.00000482 rev/day2

B* drag term: 0.0030677655 1/REarth

Two-line elements (TLE)

Creation date: Oct. 27, 2025, 2:46 a.m.

Reference frame: TEME

Reference center: EARTH

Epoch: Oct. 26, 2025, 4:34 p.m. UTC

TLE line 0: 0 DELTA 1 DEB

TLE line 1: 1 40763U 76077GG 25299.69083268 .00000482 00000-0 30678-2 0 9996

TLE line 2: 2 40763 101.5459 277.4570 0031068 301.6288 58.1758 12.59036177 62738

Live tracking on map

Real-time ground track for satellite DELTA 1 DEB.

In-orbit conjunctions

A list of the most updated potential collisions computed for object DELTA 1 DEB.

Target Orbit TCA Probability of collision Miss distance Type
COSMOS 2168 LEO 2025-08-28 23:13:23 0.001881927 148.0 (m) PAYLOAD
SL-14 R/B LEO 2024-08-13 18:35:52 0.0001039699 123.0 (m) ROCKET BODY
COSMOS 2041 LEO 2024-07-13 14:34:02 0.0002003741 343.0 (m) PAYLOAD

Associated space launch

Meteorological satellite using radiometric imaging

DELTA 1 DEB was lifted into orbit during the mission ‘Delta 2310 | NOAA 5’, on board a Delta 2310 space rocket.

The launch took place on July 29, 1976, 5:07 p.m. from Space Launch Complex 2W.

For more information about the launch, click the button.

Launch to space Delta 2310 | NOAA 5
Delta 2310 | NOAA 5

Agency: N/A

Status: Launch Successful

Launch date: July 29, 1976, 5:07 p.m. UTC

Rocket: Delta 2310

Launch pad: Space Launch Complex 2W

Location: Vandenberg SFB, CA, USA

...

Latest news about this satellite

There are no fresh news available about this satellite. Check back as we update our databases every day.


Newsletter sign-up

Weekly statistics, charts and insights to help you stay on top of the space industry.